Regional Weather Roundup
Issued by NWS Albany, NY

Home | Current Version | Previous Version | Text Only | Print | Product List | Glossary On
Versions: 1 2 3 4 5 6 7 8 9 10 11 12 13 14 15 16 17 18 19 20 21 22 23 24 25 26 27
000
ASUS41 KALY 240710
RWRALY

NEW YORK STATE HOURLY WEATHER ROUNDUP
NATIONAL WEATHER SERVICE ALBANY NY
300 AM EDT SAT JUN 24 2017

NOTE: "FAIR" INDICATES FEW OR NO CLOUDS BELOW 12,000 FEET WITH NO
SIGNIFICANT WEATHER AND/OR NO OBSTRUCTIONS TO VISIBILITY.

NYZ032-033-038>043-046>054-057>066-NYZ062>081-082-084-240800-
EAST


CITY           SKY/WX    TMP DP  RH WIND       PRES   REMARKS
ALBANY         LGT RAIN  74  69  85 S8        29.53F
GLENS FALLS    LGT RAIN  72  69  90 S9        29.49F
POUGHKEEPSIE   CLOUDY    76  70  82 SW8       29.57S
NEWBURGH       CLEAR     75  73  94 W8        29.61S
MONTGOMERY     CLOUDY    74  71  91 SW10      29.59F
WHITE PLAINS   LGT RAIN  75  70  83 VRB6      29.62S
ISLIP          CLOUDY    72  70  93 SW10      29.61F
NEW YORK CITY  LGT RAIN  76  72  87 W13G28    29.61F FOG
CENTRAL PARK   LGT RAIN  73  72  94 VRB5      29.65S
$$

NYZ005>009-017-018-044>046-055-056-240800-
CENTRAL


CITY           SKY/WX    TMP DP  RH WIND       PRES   REMARKS
FULTON         CLOUDY    68  66  93 W7        29.56F
SYRACUSE       LGT RAIN  69  68  96 NW8       29.55S
ROME           CLOUDY    70  69  97 W3        29.55F
ELMIRA         NOT AVBL
BINGHAMTON     NOT AVBL
MONTICELLO     MOCLDY    70  70 100 SW5       29.64F
$$

NYZ026>034-041>043-087-240800-
NORTH


CITY           SKY/WX    TMP DP  RH WIND       PRES   REMARKS
WATERTOWN      CLOUDY    67  67 100 W6        29.54S FOG
FORT DRUM      NOT AVBL
OGDENSBURG     CLOUDY    69  68  96 W6        29.51R
MASSENA        CLOUDY    70  69  97 W6        29.50R
SARANAC LAKE   CLOUDY    66  66 100 SW5       29.53S
PLATTSBURGH    MOCLDY    69  67  93 CALM      29.46F
$$

NYZ001>004-010>016-019>021-085-240800-
WEST


CITY           SKY/WX    TMP DP  RH WIND       PRES   REMARKS
NIAGARA FALLS  CLOUDY    69  59  70 NW8       29.64R
BUFFALO        CLOUDY    68  61  78 W9        29.64R
DUNKIRK        CLOUDY    68  65  90 W7        29.67R
JAMESTOWN      CLOUDY    64  61  88 NW9       29.70R
WELLSVILLE     LGT RAIN  68  64  87 W8        29.67S
ROCHESTER      CLOUDY    68  65  90 NW7       29.60S
PENN YAN       RAIN      69  65  86 SW5       29.59F FOG
$$

             KEY
       WCI = WIND CHILL INDEX
       VSB = VISIBILITY
       HX  = HEAT INDEX
$$




USA.gov is the U.S. government's official web portal to all federal, state and local government web resources and services.